Simultaneous Nadir Overpasses (SNOs) Predictions

Prediction of SNOs between METOP-B and NOAA-19 Satellite Orbit:

Table of predicted SNOs for the next 14.0 days since TLE Epoch: 3/13/2015
Index Date (METOP-B) Time (METOP-B) Lat,Lon (METOP-B) SZA (METOP-B ) Date (NOAA-19) Time (NOAA-19) Lat,Lon (NOAA-19) SZA (NOAA-19 ) Distance(km) Time Diff (sec)
1 03/19/2015 23:07:45 74.84,-169.75 75.19 03/19/2015 23:06:32 74.83,-170.58 75.22 24.04 73
2 03/19/2015 23:58:30 -74.69, -2.84 104.97 03/19/2015 23:57:31 -74.68, -2.91 104.96 2.10 59
3 03/20/2015 00:49:10 74.67, 164.46 75.01 03/20/2015 00:48:31 74.65, 164.43 75.00 2.59 39
4 03/20/2015 01:39:53 -74.62, -28.36 105.05 03/20/2015 01:39:33 -74.64, -28.30 105.03 2.98 20
5 03/20/2015 02:30:33 74.61, 138.94 74.92 03/20/2015 02:30:33 74.61, 139.04 74.92 2.89 0
6 03/20/2015 03:21:15 -74.60, -53.74 105.10 03/20/2015 03:21:35 -74.60, -53.70 105.10 1.34 20
7 03/20/2015 04:11:55 74.59, 113.55 74.88 03/20/2015 04:12:36 74.62, 113.51 74.90 3.36 41
8 03/20/2015 05:02:37 -74.59, -79.13 105.14 03/20/2015 05:03:37 -74.56, -79.09 105.18 2.97 60
9 03/20/2015 05:53:23 74.28, 87.40 74.56 03/20/2015 05:54:33 74.34, 88.77 74.58 41.64 70




NCC Satellite Simultaneous Nadir Overpasses (SNOs) Prediction Service
